EW8749 Weather Reports


time (UTC)temp
C
wind
direction
speed
KPH
gust
KPH
rain 1hr
cm
rain 24hr
cm
rain mn
cm
humidity
%
barometer
mb
20260509111503 7 313 0.0 0.0 0.00 0.00 0.00 90 1028.5
20260509100043 10 313 0.0 0.0 0.00 0.00 0.00 86 1027.8
20260509094544 9 283 0.0 0.0 0.00 0.00 0.00 85 1027.7
20260509093034 10 283 0.0 0.0 0.00 0.00 0.00 85 1027.7
20260509091533 10 283 0.0 0.0 0.00 0.00 0.00 84 1027.6
20260509084534 10 283 0.0 0.0 0.00 0.00 0.00 83 1027.4
20260509083045 10 283 0.0 0.0 0.00 0.00 0.00 81 1027.2
20260509081536 10 283 0.0 0.0 0.00 0.00 0.00 80 1026.8
20260509080036 11 283 0.0 0.0 0.00 0.00 0.00 79 1026.6
20260509074536 11 283 0.0 0.0 0.00 0.00 0.00 77 1026.5
20260509073031 11 283 0.0 0.0 0.00 0.00 0.00 75 1026.3
20260509071530 12 283 0.0 0.0 0.00 0.00 0.00 73 1026.1
20260509070035 13 283 0.0 0.0 0.00 0.00 0.00 68 1025.9
20260509064529 15 283 0.0 0.0 0.00 0.00 0.00 65 1025.8
20260509063028 15 268 0.0 0.0 0.00 0.00 0.00 63 1025.6
20260509061529 15 281 0.0 0.0 0.00 0.00 0.00 61 1025.6
20260509060029 16 218 0.0 0.0 0.00 0.00 0.00 60 1025.5
20260509054527 16 254 0.0 3.2 0.00 0.00 0.00 59 1025.5
20260509053038 16 278 0.0 0.0 0.00 0.00 0.00 58 1025.5
20260509051528 16 267 0.0 0.0 0.00 0.00 0.00 57 1025.5
20260509050041 16 267 0.0 0.0 0.00 0.00 0.00 58 1025.4
20260509044521 16 318 0.0 0.0 0.00 0.00 0.00 59 1025.4
20260509043032 16 268 0.0 3.2 0.00 0.00 0.00 61 1025.5
20260509041517 16 308 0.0 1.6 0.00 0.00 0.00 63 1025.7
20260509040014 15 280 3.2 8.0 0.00 0.00 0.00 62 1025.6
20260509034515 15 159 1.6 9.7 0.00 0.00 0.00 64 1025.6
20260509033012 15 228 0.0 9.7 0.00 0.00 0.00 66 1025.8
20260509031507 15 316 0.0 8.0 0.00 0.00 0.00 67 1025.9
20260509030014 14 265 0.0 8.0 0.00 0.03 0.00 67 1026.1
20260509024501 13 229 0.0 8.0 0.00 0.03 0.00 68 1026.3
20260509023058 13 327 3.2 9.7 0.00 0.03 0.00 68 1026.6
20260509021555 13 258 0.0 6.4 0.00 0.03 0.00 70 1026.9
20260509020055 13 263 0.0 4.8 0.00 0.03 0.00 70 1027.2
20260509014550 12 359 1.6 6.4 0.00 0.03 0.00 71 1027.3
20260509013050 12 31 0.0 0.0 0.00 0.03 0.00 74 1027.5
20260509011545 11 100 0.0 6.4 0.00 0.03 0.00 76 1027.6
20260509010040 11 116 1.6 4.8 0.00 0.03 0.00 77 1027.7
20260509004551 10 5 0.0 0.0 0.00 0.03 0.00 80 1027.7
20260509003034 9 112 0.0 1.6 0.00 0.03 0.00 84 1028.0
20260509001530 9 112 0.0 3.2 0.00 0.03 0.00 88 1028.1
20260509000039 8 94 1.6 4.8 0.00 0.03 0.00 91 1028.2
20260508234528 8 270 0.0 0.0 0.00 0.03 0.00 92 1028.2